Location: Go�ngahuizen
(53.0821°N, 5.8849°E)
Time: 18:39:32
(UTC+00:00)

Cosmos 2344 - Pass Details

Date: 09 April 2020
Orbit: 1251 x 2991 km, 63.3° (Epoch: 03 June)

Event Time Altitude Azimuth Distance (km) Brightness Sun altitude
Rises 22:22:37 0° 314° (NW) 4,581 7.5 -26.8°
Reaches altitude 10° 22:25:16 10° 311° (NW) 3,739 6.8 -27.0°
Maximum altitude 22:34:29 64° 233° (SW) 2,071 4.4 -27.4°
Enters shadow 22:38:45 43° 174° (S) 2,711 4.7 -27.6°
